Weather History for KMTC - March, 2013

Change the Weather History Date:

Saturday, March 30, 2013

  Actual Average Record
Temperature  
Mean Temperature 38 °F -  
Max Temperature 53 °F 49 °F 82 °F (1998)
Min Temperature 26 °F 32 °F 16 °F (1969)
Degree Days  
Heating Degree Days 26    
Moisture  
Dew Point 25 °F    
Average Humidity 68    
Maximum Humidity 87    
Minimum Humidity 28    
Precipitation  
Precipitation 0.00 in - - ()
Sea Level Pressure  
Sea Level Pressure 30.17 in    
Wind  
Wind Speed 3 mph (South)    
Max Wind Speed 16 mph    
Max Gust Speed -    
Visibility 9 miles    
Events Fog    
Averages and records for this station are not official NWS values.
T = Trace of Precipitation, MM = Missing Value Source: NWS Daily Summary

Daily Weather History Graph

Daily Weather History Graph

Search for Another Location

Airport or City:

Trip Planner

Search our weather history database for the weather conditions in past years. The results will help you decide how hot, cold, wet, or windy it might be!

Date:

Astronomy

Mar. 30, 2013 Rise Set
Actual Time 7:16 AM EDT 7:55 PM EDT
Civil Twilight 6:48 AM EDT 8:23 PM EDT
Nautical Twilight 6:14 AM EDT 8:57 PM EDT
Astronomical Twilight 5:40 AM EDT 9:32 PM EDT
Moon No Moon Rise 9:06 AM EDT
Length of Visible Light 13h 35m
Length of Day
12h 38m
Waning Gibbous, 86% of the Moon is Illuminated
Mar 30
Waning Gibbous
Apr 3
Last Quarter
Apr 10
New
Apr 18
First Quarter
Apr 25
Full

Hourly Weather History & Observations

Time (EDT) Temp. Windchill Dew Point Humidity Pressure Visibility Wind Dir Wind Speed Gust Speed Precip Events Conditions
12:37 AM 33.8 °F - 26.6 °F 75% 30.22 in 8.0 mi Calm Calm - N/A   Clear
12:45 AM 33.8 °F - 26.6 °F 75% 30.22 in 6.0 mi Calm Calm - N/A   Haze
12:47 AM 33.8 °F - 26.6 °F 75% 30.22 in 6.0 mi Calm Calm - N/A   Haze
12:55 AM 32.4 °F - 26.1 °F 78% 30.22 in 7.0 mi Calm Calm - N/A   Clear
1:07 AM 32.0 °F - 24.8 °F 75% 30.22 in 7.0 mi Calm Calm - N/A   Clear
1:53 AM 30.2 °F - 24.8 °F 80% 30.22 in 8.0 mi Calm Calm - N/A   Clear
1:54 AM 30.2 °F - 24.8 °F 80% 30.22 in 8.0 mi Calm Calm - N/A   Clear
1:55 AM 30.9 °F - 24.6 °F 77% 30.22 in 8.0 mi Calm Calm - N/A   Clear
2:12 AM 30.2 °F - 23.0 °F 75% 30.22 in 7.0 mi Calm Calm - N/A   Clear
2:41 AM 30.2 °F 23.4 °F 23.0 °F 75% 30.22 in 4.0 mi WNW 6.9 mph - N/A   Haze
2:42 AM 32.0 °F 25.6 °F 23.0 °F 69% 30.22 in 4.0 mi WNW 6.9 mph - N/A   Haze
2:45 AM 32.0 °F 28.7 °F 23.0 °F 69% 30.22 in 4.0 mi West 3.5 mph - N/A   Haze
2:54 AM 30.2 °F 26.7 °F 23.0 °F 75% 30.22 in 4.0 mi NNW 3.5 mph - N/A   Haze
2:55 AM 29.8 °F 26.3 °F 22.3 °F 73% 30.22 in 5.0 mi NNW 3.5 mph - N/A   Haze
3:07 AM 28.4 °F 24.6 °F 23.0 °F 80% 30.22 in 6.0 mi WNW 3.5 mph - N/A   Haze
3:19 AM 30.2 °F - 23.0 °F 75% 30.22 in 9.0 mi Calm Calm - N/A   Clear
3:34 AM 30.2 °F - 23.0 °F 75% 30.22 in 8.0 mi Calm Calm - N/A   Clear
3:38 AM 28.4 °F - 23.0 °F 80% 30.22 in 9.0 mi Calm Calm - N/A   Clear
3:55 AM 29.1 °F - 22.1 °F 75% 30.22 in 9.0 mi Calm Calm - N/A   Clear
4:00 AM 30.2 °F - 23.0 °F 75% 30.22 in 9.0 mi Calm Calm - N/A   Clear
4:12 AM 30.2 °F - 23.0 °F 75% 30.22 in 8.0 mi Calm Calm - N/A   Clear
4:55 AM 26.6 °F - 21.2 °F 80% 30.21 in 12.0 mi Calm Calm - N/A Fog Shallow Fog
5:50 AM 26.6 °F - 23.0 °F 86% 30.17 in 12.0 mi Calm Calm - N/A   Clear
5:59 AM 26.6 °F - 23.0 °F 86% 30.22 in 12.0 mi Calm Calm - N/A Fog Shallow Fog
6:29 AM 26.6 °F - 21.2 °F 80% 30.17 in 12.0 mi Calm Calm - N/A   Clear
6:55 AM 28.4 °F - 23.0 °F 80% 30.22 in 12.0 mi Calm Calm - N/A Fog Shallow Fog
7:20 AM 26.6 °F - 23.0 °F 86% 30.18 in 12.0 mi Calm Calm - N/A   Clear
7:55 AM 26.6 °F - 23.0 °F 86% 30.23 in 10.0 mi Calm Calm - N/A   Clear
8:55 AM 33.8 °F - 30.2 °F 87% 30.23 in 10.0 mi Calm Calm - N/A   Partly Cloudy
9:55 AM 41.0 °F 39.0 °F 33.8 °F 76% 30.22 in 10.0 mi East 3.5 mph - N/A   Partly Cloudy
10:55 AM 44.6 °F 41.4 °F 28.4 °F 53% 30.19 in 10.0 mi SE 5.8 mph - N/A   Partly Cloudy
11:55 AM 48.2 °F - 26.6 °F 43% 30.19 in 10.0 mi South 6.9 mph - N/A   Partly Cloudy
12:55 PM 50.0 °F - 26.6 °F 40% 30.17 in 10.0 mi SSE 8.1 mph - N/A   Scattered Clouds
1:55 PM 51.8 °F - 28.4 °F 41% 30.13 in 10.0 mi SSE 15.0 mph - N/A   Scattered Clouds
2:55 PM 51.8 °F - 26.6 °F 38% 30.12 in 10.0 mi South 16.1 mph - N/A   Scattered Clouds
3:55 PM 51.8 °F - 24.8 °F 35% 30.08 in 10.0 mi South 16.1 mph - N/A   Mostly Cloudy
4:55 PM 51.8 °F - 19.4 °F 28% 30.06 in 10.0 mi SSE 16.1 mph - N/A   Mostly Cloudy
5:55 PM 50.0 °F - 24.8 °F 37% 30.04 in 10.0 mi South 13.8 mph - N/A   Overcast
6:55 PM 50.0 °F - 24.8 °F 37% 30.02 in 10.0 mi South 13.8 mph - N/A   Mostly Cloudy
7:55 PM 44.6 °F 39.2 °F 26.6 °F 49% 30.02 in 10.0 mi South 10.4 mph - N/A   Mostly Cloudy
8:55 PM 42.8 °F 36.6 °F 28.4 °F 57% 30.01 in 10.0 mi South 11.5 mph - N/A   Mostly Cloudy
9:55 PM 42.8 °F 35.8 °F 26.6 °F 53% 30.00 in 10.0 mi South 13.8 mph - N/A   Mostly Cloudy
10:55 PM 41.0 °F 35.2 °F 30.2 °F 65% 29.98 in 10.0 mi South 9.2 mph - N/A   Overcast
11:55 PM 38.1 °F 32.3 °F 30.9 °F 75% 29.96 in 10.0 mi South 8.1 mph - N/A   Overcast